{"data":{"norad_id":63079,"epoch":"2026-09-21T14:09:12.951936Z","epoch_age_seconds":68108,"freshness":"FRESH","line1":"1 63079U 25037C   26264.58973324  .00011199  00000+0  39342-3 0  9997","line2":"2 63079  70.0003 218.2191 0002698 270.1505  89.9361 15.29582798 87991","mean_motion":15.29582798,"eccentricity":0.0002698,"inclination_deg":70.0003,"raan_deg":218.2191,"arg_perigee_deg":270.1505,"mean_anomaly_deg":89.9361,"bstar":0.00039342,"rev_number":8799,"period_min":94.143318157269,"perigee_km":475.20901122968,"apogee_km":478.90807474468,"semimajor_km":6855.1955429872,"source":"CELESTRAK","updated_at":"2026-09-22T09:00:49.757101Z"}}